Location: El Para�so
(10.4896°N, 66.9245°W)
Time: 20:03:11
(UTC+00:00)

Cosmos 405 - Pass Details

Date: 08 August 2020
Orbit: 451 x 463 km, 81.3° (Epoch: 01 October)

Event Time Altitude Azimuth Distance (km) Brightness Sun altitude
Rises 23:37:45 0° 17° (NNE) 2,445 6.7 -12.3°
Reaches altitude 10° 23:40:14 10° 36° (NE) 1,575 5.5 -12.9°
Enters shadow 23:42:28 19° 76° (ENE) 1,136 4.4 -13.4°
